TimeMST,TemperatureF,Dew PointF,Humidity,Sea Level PressureIn,VisibilityMPH,Wind Direction,Wind SpeedMPH,Gust SpeedMPH,PrecipitationIn,Events,Conditions,WindDirDegrees,DateUTC
12:54 AM,50.0,35.1,57,30.01,10.0,Calm,Calm,-,N/A,,Clear,0,2012-11-04 07:54:00
1:54 AM,50.0,35.1,57,30.01,10.0,ENE,3.5,-,N/A,,Clear,70,2012-11-04 08:54:00
2:54 AM,48.9,36.0,61,30.01,10.0,NNE,4.6,-,N/A,,Clear,30,2012-11-04 09:54:00
3:54 AM,48.0,36.0,63,30.01,10.0,South,4.6,-,N/A,,Clear,170,2012-11-04 10:54:00
4:54 AM,46.9,34.0,61,30.02,10.0,Calm,Calm,-,N/A,,Clear,0,2012-11-04 11:54:00
5:54 AM,46.0,34.0,63,30.05,10.0,Calm,Calm,-,N/A,,Clear,0,2012-11-04 12:54:00
6:54 AM,45.0,34.0,65,30.06,10.0,Calm,Calm,-,N/A,,Clear,0,2012-11-04 13:54:00
7:54 AM,53.1,35.1,50,30.06,10.0,Calm,Calm,-,N/A,,Clear,0,2012-11-04 14:54:00
8:54 AM,60.1,36.0,41,30.07,10.0,South,4.6,-,N/A,,Clear,170,2012-11-04 15:54:00
9:54 AM,69.1,35.1,29,30.06,10.0,SSW,3.5,-,N/A,,Clear,210,2012-11-04 16:54:00
10:54 AM,73.9,33.1,22,30.04,10.0,Variable,3.5,-,N/A,,Clear,0,2012-11-04 17:54:00
11:54 AM,79.0,32.0,18,30.01,10.0,Variable,3.5,-,N/A,,Clear,0,2012-11-04 18:54:00
12:54 PM,81.0,30.9,16,29.98,10.0,Calm,Calm,-,N/A,,Clear,0,2012-11-04 19:54:00
1:54 PM,82.9,30.0,15,29.96,10.0,Variable,6.9,-,N/A,,Clear,0,2012-11-04 20:54:00
2:54 PM,82.0,30.0,15,29.95,10.0,Calm,Calm,-,N/A,,Clear,0,2012-11-04 21:54:00
3:54 PM,82.0,28.9,14,29.96,10.0,Variable,6.9,-,N/A,,Clear,0,2012-11-04 22:54:00
4:54 PM,78.1,28.9,17,29.98,10.0,NW,6.9,-,N/A,,Clear,310,2012-11-04 23:54:00
5:54 PM,73.0,28.9,20,30.00,10.0,North,6.9,-,N/A,,Clear,360,2012-11-05 00:54:00
6:54 PM,69.1,26.1,20,30.03,10.0,East,9.2,-,N/A,,Clear,80,2012-11-05 01:54:00
7:54 PM,68.0,25.0,20,30.02,10.0,Calm,Calm,-,N/A,,Clear,0,2012-11-05 02:54:00
8:54 PM,64.0,27.0,25,30.03,10.0,SSE,3.5,-,N/A,,Clear,160,2012-11-05 03:54:00
9:54 PM,61.0,28.0,29,30.03,10.0,SSW,3.5,-,N/A,,Clear,210,2012-11-05 04:54:00
10:54 PM,57.0,28.0,33,30.04,10.0,South,3.5,-,N/A,,Clear,180,2012-11-05 05:54:00
11:54 PM,54.0,27.0,35,30.03,10.0,Calm,Calm,-,N/A,,Clear,0,2012-11-05 06:54:00